Location: Czu?�w
(50.1404°N, 18.9919°E)
Time: 05:31:24
(UTC+00:00)

H-2A R/B - Pass Details

Date: 27 October 2020
Orbit: 733 x 837 km, 98.2° (Epoch: 25 November)

Event Time Altitude Azimuth Distance (km) Brightness Sun altitude
Rises 18:59:38 0° 207° (SSW) 3,353 5.4 -33.9°
Reaches altitude 10° 19:02:35 10° 224° (SW) 2,436 4.8 -34.4°
Maximum altitude 19:06:33 21° 271° (W) 1,824 4.5 -35.0°
Drops below altitude 10° 19:10:33 10° 319° (NW) 2,462 5.3 -35.5°
Sets 19:13:34 0° 335° (NNW) 3,399 6.0 -36.0°
